Regional Weather Roundup
Issued by NWS

Home | Current Version | Previous Version | Graphics & Text | Print | Product List | Glossary On
Versions: 1 2 3 4 5 6 7 8 9 10 11 12 13 14 15 16 17 18 19 20 21 22 23 24 25 26 27 28 29 30 31 32 33 34 35 36 37 38 39 40 41 42 43 44 45 46 47 48 49 50
000
ASUS43 KMKX 242000
RWRWI

WISCONSIN REGIONAL WEATHER ROUNDUP
NATIONAL WEATHER SERVICE MILWAUKEE/SULLIVAN WI
300 PM CDT THU APR 24 2014

NOTE: "FAIR" INDICATES FEW OR NO CLOUDS BELOW 12,000 FEET WITH NO
SIGNIFICANT WEATHER AND/OR OBSTRUCTIONS TO VISIBILITY.

WIZ001-002-006>008-014>016-023>028-242100-
NORTHWEST WISCONSIN

CITY           SKY/WX    TMP DP  RH WIND       PRES   REMARKS
SUPERIOR ARPT  MIX PCPN  32  32 100 NE12G17   29.81F WCI  23
ASHLAND        LGT SNOW  35  34  96 NE10      29.84F FOG     WCI  27
HAYWARD        LGT RAIN  35  17  47 E8        29.76F WCI  29
SIREN          DRIZZLE   39  38  97 E5        29.74F
RICE LAKE      RAIN      41  39  94 E9G16     29.74F
LADYSMITH      LGT RAIN  40  38  92 E13G18    29.77F WCI  32
EAU CLAIRE     NOT AVBL
MENOMONIE      LGT RAIN  42  42  99 E8        29.72F
NEW RICHMOND   CLOUDY    42  41  99 SE5       29.71S
OSCEOLA        HVY RAIN  42  42 100 E7        29.74S
$$

WIZ003>005-009-010-017-018-242100-
NORTH CENTRAL WISCONSIN

CITY           SKY/WX    TMP DP  RH WIND       PRES   REMARKS
WOODRUFF       LGT SNOW  37  34  91 E10G18    29.83F VSB 3/4 WCI  29
RHINELANDER    MIX PCPN  33  32  96 E17       29.82F WCI  22
EAGLE RIVER    LGT SNOW  34  34  99 SE12      29.85F WCI  25
LAND O LAKES   LGT SNOW  35  34  96 E10G17    29.87F WCI  27
PHILLIPS       RAIN      35  33  94 E12       29.79F WCI  26
TOMAHAWK       RAIN      36  34  94 SE6       29.81F WCI  31
MEDFORD        LGT RAIN  39  37  93 SE14G21   29.77S WCI  31
MERRILL        DRIZZLE   39  37  92 E12G20    29.80S WCI  32
$$

WIZ029-030-035-036-043>047-242100-
CENTRAL WISCONSIN

CITY           SKY/WX    TMP DP  RH WIND       PRES   REMARKS
WAUSAU         LGT RAIN  41  40  96 SE14G24   29.79S FOG
MOSINEE        LGT RAIN  39  39 100 E15G24    29.80S WCI  31
MARSHFIELD     RAIN      42  38  85 SE18G28   29.75F FOG
STEVENS POINT  LGT RAIN  40  37  88 E14G26    29.80F WCI  32
WAUPACA        CLOUDY    46  37  71 E17       29.85F
WAUTOMA        LGT RAIN  45  39  81 E9G17     29.81F FOG
WISC RAPIDS    LGT RAIN  43  39  86 E15G24    29.78F FOG
CAMP DOUGLAS   NOT AVBL
$$

WIZ011>013-019>022-031-037>040-048>050-242100-
NORTHEAST WISCONSIN

CITY           SKY/WX    TMP DP  RH WIND       PRES   REMARKS
ANTIGO         CLOUDY    37  36  95 SE24G30   29.82F WCI  26
STURGEON BAY   CLOUDY    39  36  87 E12       29.96F WCI  32
GREEN BAY      LGT RAIN  43  38  82 E16       29.90F
MANITOWOC      NOT AVBL
APPLETON       DRIZZLE   43  36  75 E14G21    29.87F FOG
CLINTONVILLE   CLOUDY    43  37  81 E14G20    29.88F
OSHKOSH        LGT RAIN  44  38  79 E14G24    29.85F
$$

WIZ032>034-041-042-053>061-242100-
SOUTHWEST WISCONSIN

CITY           SKY/WX    TMP DP  RH WIND       PRES   REMARKS
LA CROSSE      CLOUDY    46  42  86 E9        29.68F
SPARTA         LGT RAIN  44  42  93 E9        29.73F
VIROQUA        CLOUDY    46  46  98 SE17      29.68F
BOSCOBEL       RAIN      52  46  80 CALM      29.70F
PRAIRIE DU CHI DRIZZLE   52  46  80 SE12      29.68F
PLATTEVILLE    CLOUDY    54  47  78 SE14G21   29.72F
$$

WIZ056-057-062-063-064-067-068-242100-
SOUTH CENTRAL WISCONSIN

CITY           SKY/WX    TMP DP  RH WIND       PRES   REMARKS
BARABOO/DELLS  CLOUDY    47  42  81 E9        29.75F
LONE ROCK      NOT AVBL
WATERTOWN      LGT RAIN  52  42  69 SE9       29.81R
MADISON        LGT RAIN  56  43  61 SE18      29.77F
MIDDLETON      CLOUDY    53  46  76 SE8       29.76F
MONROE         RAIN      52  44  75 S20       29.77F
JANESVILLE     LGT RAIN  59  41  51 SE12G18   29.79R
$$

WIZ051-052-058>065-066-070>072-242100-
SOUTHEAST WISCONSIN

CITY           SKY/WX    TMP DP  RH WIND       PRES   REMARKS
MILWAUKEE      CLOUDY    51  31  46 SE22G33   29.85F
WAUKESHA       CLOUDY    54  30  40 SE12G22   29.85R
MILWAUKEE/TIMM PTSUNNY   52  28  40 SE16G28   29.85F
RACINE         CLOUDY    50  31  48 SE18G30   29.85F
BURLINGTON     CLOUDY    58  35  41 SW20G28   29.80F
KENOSHA        CLOUDY    53  33  46 SE17G26   29.82F
FOND DU LAC    CLOUDY    46  36  68 SE14      29.84F
SHEBOYGAN      CLOUDY    44  35  70 E10G21    29.89F
WEST BEND      CLOUDY    46  32  57 SE15G24   29.85F
JUNEAU         CLOUDY    50  34  53 E14G21    29.83R
$$

LSZ147-162-242100-
LAKE SUPERIOR

STATION/POSITION TIME  TEMP    WIND        PRES    WAVE
                       AIR SEA DIR/SP/G            HT/PER
                 (UTC) (F)     (DEG/KT/KT) (MB)    (FT/S)
DEVILS ISLAND    1900   33      90/ 19/ 20 1013.5F
PORT WING        1900   37      70/  5/ 10 1010.8F
SAXON HARBOR     1900           70/  5/  9 1011.5F
$$

LMZ867-665-643>646-242100-
LAKE MICHIGAN

STATION/POSITION TIME  TEMP    WIND        PRES    WAVE
                       AIR SEA DIR/SP/G            HT/PER
                 (UTC) (F)     (DEG/KT/KT) (MB)    (FT/S)
NORTHPORT PIER   1900   37      CALM  /  4 1016.6F
SISTER BAY       1908   38      CALM  /  3   N/A
KEWAUNEE LAKESHO 1900   38      70/  9/ 13 1015.3F
SHEBOYGAN LAKESH 1900   41      90/ 15/ 17 1014.1F
PORT WASHINGTON  1900   41     100/ 12/ 16 1012.9F
MILWAUKEE LAKESH 1900   42     110/ 17/ 19   N/A
KENOSHA   LAKESH 1900   45     120/ 22/ 25   N/A
$$

TC  - TEMPERATURE IN CELSIUS
VSB - VISIBILITY IN STATUTE MILES
WCI - WIND CHILL INDEX
HX  - HEAT INDEX




USA.gov is the U.S. government's official web portal to all federal, state and local government web resources and services.